STARLINK-1355, 45563

Orbit data source: Space-Track

STARLINK-1355, 45563 is a payload satellite owned by SpaceX/Seattle (US) in LEO that was launched on Wed, 22 Apr 2020 UTC via an FALCON 9 launch vehicle from the Air Force Eastern Test Range (AFETR). Payload-class satellites include a variety of spacecraft equipped with specific instruments for various scientific and technological missions. These include communications satellites like Starlink; space stations such as the ISS; scientific satellites like the Hubble; Earth observation satellites from companies like Planet Labs, Umbra, and HawkEye 360; GPS; miniature CubeSats for education and research; and military/defense satellites.

Loading next visibility...
Identifier
45563, 2020-025AJ
Orbit
LEO
Last TLE update
13 hours ago
Origin
Manufacturer
SpaceX/Seattle
Mission
Partially operational Commercial Communications
Bus & Motor
STARLINK, Unknown motor
Mass
260 kg wet, ~248 kg dry
Launch date (UTC)
2020-04-22 (5 years ago)
Launch vehicle
FALCON 9
Launch site
Air Force Eastern Test Range (AFETR)
Object type
Payload
Rocket body
Debris
Shape & HBR
Box + 1 Pan, 8.86 m
Radar Cross Section
13.562 m², Large (>1 m²)

Expand to show TLE details & history

TLE from 13 hours ago
0 STARLINK-1355
1 45563U 20025AJ  25128.73857089  .00066504  00000-0  56747-3 0  9990
2 45563  53.0484 330.1933 0002174 268.8235  91.2532 15.68920287280043
Epoch: 2025-05-08T17:43Z
Definitive object data (Epoch: 2025-05-08T17:43:32.524Z)
Latitude
-0.00004°
Longitude
-162.497°
Altitude
362.922 km
Speed
7.693 km/s
True Right ascension
22h 00m 46s
True Declination
0° 00' 00"
Sunlit
Object was in daylight at TLE epoch
Visualization TLE readout
Latitude
9.7714°
Longitude
7.43859°
Altitude
362.268 km
Speed
7.694 km/s
Apparent Right ascension
06h 44m 06s
Apparent Declination
-20° 52' 28"
Sunlit
Object is in daylight
Visualization observer readout
Local Sidereal Time
14:48:57
Azimuth
272.678° WNW
Elevation
-36.868°
Doppler factor
1
Orbital elements
Apogee altitude
363.732 km
Perigee altitude
360.801 km
Semi-major axis
6,740.403 km
Eccentricity
0.0002174
Inclination
53.0484°
RAAN
330.1933°
Arg. of periapsis
268.8235°
True anomaly
91.27811°
Mean anomaly
91.2532°
Eccentric anomaly
91.26565°
Mean motion
3.92206 °/min
BSTAR
0.00056747
Orbital period
91.79 mins
Loading maneuver chart data...
Loading SW <> Apogee altitude chart data...
Loading historical data...
Loading historical data...
Loading historical data...
Loading historical data...
Loading historical data...
Loading historical data...
Loading historical data...

STARLINK-1355 Visibility forecast

Observer location: undefined°, undefined°

Span
Click to sort rows by Start time (UTC) header in descending order
Start Az.
Max El. time (UTC)
Max El. Az.
Max El.
End time (UTC)
End Az.
4 mins2025-05-09 23:18:04.716Z282.393° WNW2025-05-09 23:20:04.716Z202.195° SSW29.975°2025-05-09 23:22:04.716Z157.905° S
|